User: anonymous   Login
Location: Unspecified
(0.0000°N, 0.0000°E)
Time: 22:04:13
(UTC+00:00)
Language:

ZACube-1 - Orbit

View from above orbital plane
View from above orbital plane
View from above satellite
View from above satellite

Ground track
Ground track

The orbit data is extracted from the following two-line orbital elements,

1 39417U 13066B   24115.42382546  .00012966  00000-0  13664-2 0  9993
2 39417  97.7301  72.6419 0050516 340.6386  19.2911 14.88514215563588
Epoch (UTC): 24 April 2024 10:10:18
Eccentricity: 0.0050516
inclination: 97.7301°
perigee height: 567 km
apogee height: 638 km
right ascension of ascending node: 72.6419°
argument of perigee: 340.6386°
revolutions per day: 14.88514215
mean anomaly at epoch: 19.2911°
orbit number at epoch: 56358

The dashed part of the orbit path shows where the satellite is in the earth's shadow,  

DLR